This demonstration page uses our WeatherBlox Daily Observations layout. Learn more.

Left ArrowRight Arrow

Hourly Observations for January 13, 2017

Temp ( °F °C ) Dew Point ( °F °C ) Humidity (%) Winds ( mph kmh ) Pressure ( in mb ) Visibility ( mi km ) Precip ( " mm )
12:52 am 00:52 Cloudy 30 -1.1 20 -6.7 66 66 ENE 13 20 30.42 1030 10 16 0.00 0.00
1:18 am 01:18 Cloudy 30 -1 19 -7 64 64 ENE 13 20 30.45 1031 10 16 0.00 0.00
1:42 am 01:42 Cloudy 30 -1 19 -7 64 64 NE 12 19 30.45 1031 10 16 0.00 0.00
1:52 am 01:52 Cloudy 30 -1.1 20 -6.7 66 66 ENE 13 20 30.43 1030 10 16 0.00 0.00
2:03 am 02:03 Cloudy 30 -1 19 -7 64 64 E 12 19 30.48 1032 10 16 0.00 0.00
2:52 am 02:52 Cloudy with Light Wintry Mix 30 -1.1 22 -5.6 72 72 NE 9 15 30.48 1032 7 11 0.00 0.03
2:59 am 02:59 Cloudy with Light Rain 30 -1.1 23 -5 75 75 ENE 9 15 30.50 1033 7 11 0.01 0.25
3:29 am 03:29 Cloudy with Light Freezing Rain 30 -1.1 24 -4.4 79 79 ENE 10 17 30.48 1032 10 16 0.03 0.76
3:40 am 03:40 Cloudy with Freezing Rain 30 -1.1 25 -3.9 82 82 NNE 8 13 30.50 1033 3 5 0.10 2.54
3:52 am 03:52 Cloudy with Freezing Rain 30 -1.1 25 -3.9 82 82 NE 7 11 30.47 1032 4 6 0.11 2.79
4:00 am 04:00 Cloudy with Light Freezing Rain 30 -1 25 -4 80 80 ENE 13 20 30.48 1032 6 10 0.00 0.00
4:07 am 04:07 Cloudy with Freezing Rain 30 -1.1 25 -3.9 82 82 ENE 14 22 30.48 1032 5 8 0.02 0.51
4:17 am 04:17 Cloudy with Light Wintry Mix 30 -1 27 -3 86 86 ENE 13 20 30.48 1032 9 14 0.00 0.00
4:52 am 04:52 Cloudy with Light Wintry Mix 30 -1.1 26 -3.3 85 85 ENE 8 13 30.47 1032 8 13 0.03 0.76
5:07 am 05:07 Cloudy with Light Freezing Rain 30 -1.1 26 -3.3 85 85 ENE 12 19 30.48 1032 9 14 0.00 0.03
5:45 am 05:45 Cloudy with Light Freezing Rain 30 -1.1 27 -2.8 88 88 ENE 9 15 30.50 1033 3 5 0.01 0.25
5:52 am 05:52 Cloudy with Light Freezing Rain 30 -1.1 27 -2.8 88 88 ENE 12 19 30.48 1032 3 5 0.03 0.76
6:07 am 06:07 Cloudy with Light Freezing Rain 30 -1.1 27 -2.8 88 88 E 13 20 30.48 1032 6 10 0.02 0.51
6:48 am 06:48 Cloudy with Light Freezing Rain and Nearby Thunderstorms 30 -1 28 -2 93 93 ENE 10 17 30.48 1032 4 6 0.00 0.00
6:52 am 06:52 Cloudy with Light Freezing Rain and Nearby Thunderstorms 31 -0.6 28 -2.2 89 89 NE 6 9 30.49 1033 4 6 0.03 0.76
7:00 am 07:00 Cloudy with Light Freezing Rain 30 -1 28 -2 93 93 NE 7 11 30.50 1033 2 3 0.00 0.00
7:19 am 07:19 Cloudy with Light Freezing Rain and Nearby Thunderstorms 31 -0.6 29 -1.7 92 92 E 8 13 30.50 1033 2 3 0.39 9.91
7:28 am 07:28 Cloudy with Light Freezing Rain and Nearby Thunderstorms 30 -1 28 -2 93 93 E 10 17 30.48 1032 5 8 0.00 0.00
7:37 am 07:37 Cloudy with Light Freezing Rain 31 -0.6 30 -1.1 96 96 ENE 9 15 30.50 1033 4 6 0.41 10.41
7:52 am 07:52 Cloudy with Thunderstorms 31 -0.6 30 -1.1 96 96 ENE 8 13 30.48 1032 8 13 0.42 10.67
8:13 am 08:13 Cloudy with Light Freezing Rain and Nearby Thunderstorms 32 0 30 -1 93 93 E 8 13 30.50 1033 4 6 0.00 0.00
8:25 am 08:25 Cloudy with Light Freezing Rain 32 0 30 -1.1 92 92 E 10 17 30.50 1033 2 3 0.10 2.54
8:32 am 08:32 Cloudy with Light Freezing Rain 32 0 30 -1 93 93 E 9 15 30.50 1033 2 2 0.00 0.00
8:47 am 08:47 Cloudy with Light Freezing Rain 32 0 30 -1 93 93 ESE 8 13 30.53 1034 2 3 0.56 14.22
8:52 am 08:52 Cloudy with Light Freezing Rain 32 0 30 -1.1 92 92 ESE 10 17 30.51 1033 2 3 0.62 15.75
9:31 am 09:31 Cloudy with Light Freezing Rain 32 0 31 -0.6 96 96 ESE 8 13 30.56 1035 2 3 0.28 7.11
9:47 am 09:47 Cloudy with Light Freezing Rain 32 0 30 -1 93 93 ESE 9 15 30.56 1035 2 3 0.38 9.65
9:52 am 09:52 Cloudy with Light Freezing Rain 32 0 31 -0.6 96 96 ESE 10 17 30.53 1034 2 3 0.39 9.91
10:12 am 10:12 Cloudy with Light Freezing Rain 34 1 30 -1 87 87 ESE 12 19 30.56 1035 5 8 0.00 0.00
10:26 am 10:26 Cloudy with Light Freezing Rain 34 1 30 -1 87 87 ESE 12 19 30.56 1035 3 4 0.00 0.00
10:35 am 10:35 Cloudy with Light Freezing Rain 32 0 31 -0.6 96 96 E 10 17 30.56 1035 3 5 0.06 1.52
10:44 am 10:44 Cloudy with Light Freezing Rain 32 0 30 -1 93 93 E 10 17 30.56 1035 3 4 0.00 0.00
10:52 am 10:52 Cloudy with Light Freezing Rain 32 0 30 -1.1 92 92 E 9 15 30.53 1034 2 3 0.07 1.78
11:25 am 11:25 Cloudy with Light Freezing Rain 32 0 31 -0.6 96 96 E 8 13 30.56 1035 2 3 0.00 0.03
11:32 am 11:32 Cloudy with Light Freezing Rain 32 0 30 -1 93 93 E 8 13 30.53 1034 3 4 0.00 0.00
11:52 am 11:52 Cloudy with Light Freezing Rain 33 0.6 31 -0.6 92 92 E 8 13 30.51 1033 2 3 0.00 0.03
12:37 pm 12:37 Cloudy with Light Freezing Rain 33 0.6 31 -0.6 92 92 E 7 11 30.50 1033 2 3 0.00 0.03
12:48 pm 12:48 Cloudy with Light Freezing Rain 34 1 30 -1 87 87 E 7 11 30.50 1033 2 3 0.00 0.00
12:52 pm 12:52 Cloudy with Light Freezing Rain 33 0.6 31 -0.6 92 92 E 7 11 30.49 1033 2 3 0.00 0.03
1:08 pm 13:08 Cloudy with Light Freezing Rain 34 1 30 -1 87 87 E 6 9 30.50 1033 2 3 0.00 0.00
1:52 pm 13:52 Cloudy with Light Freezing Rain 33 0.6 31 -0.6 92 92 E 8 13 30.48 1032 1 2 0.00 0.03
2:13 pm 14:13 Partly Cloudy with Light Freezing Rain 33 0.6 32 0 96 96 undefined N/A 30.50 1033 N/A 0.01 0.25
2:27 pm 14:27 Partly Cloudy with Light Freezing Rain 33 0.6 32 0 96 96 ENE 7 11 30.50 1033 2 3 0.01 0.25
2:39 pm 14:39 Partly Cloudy with Light Freezing Rain 33 0.6 31 -0.6 92 92 ENE 7 11 30.50 1033 2 3 0.01 0.25
2:44 pm 14:44 Cloudy with Light Freezing Rain 34 1 32 0 93 93 ENE 6 9 30.50 1033 2 3 0.00 0.00
2:52 pm 14:52 Partly Cloudy with Light Freezing Rain 33 0.6 31 -0.6 92 92 ENE 7 11 30.48 1032 2 3 0.03 0.76
3:19 pm 15:19 Cloudy with Light Rain 33 0.6 32 0 96 96 ENE 7 11 30.50 1033 3 5 0.00 0.03
3:52 pm 15:52 Cloudy with Mist and Fog 33 0.6 32 0 96 96 E 6 9 30.50 1033 4 6 0.01 0.25
4:11 pm 16:11 Cloudy with Mist and Fog 33 0.6 32 0 96 96 E 7 11 30.50 1033 2 3 0.00 0.00
4:43 pm 16:43 Cloudy with Light Rain 33 0.6 32 0 96 96 ENE 6 9 30.50 1033 2 3 0.00 0.03
4:52 pm 16:52 Cloudy with Light Rain 33 0.6 32 0 96 96 ENE 6 9 30.50 1033 3 5 0.00 0.03
5:11 pm 17:11 Cloudy with Rain 33 0.6 32 0 96 96 E 6 9 30.50 1033 2 3 0.02 0.51
5:24 pm 17:24 Cloudy with Mist and Fog 34 1 32 0 93 93 ENE 5 7 30.53 1034 4 6 0.00 0.00
5:52 pm 17:52 Cloudy with Mist and Fog 34 1.1 32 0 92 92 E 5 7 30.51 1033 3 5 0.03 0.76
6:52 pm 18:52 Cloudy 34 1.1 32 0 92 92 ESE 7 11 30.49 1033 7 11 0.00 0.03
7:13 pm 19:13 Cloudy with Mist and Fog 34 1.1 32 0 92 92 E 5 7 30.53 1034 5 8 0.00 0.00
7:44 pm 19:44 Cloudy with Mist and Fog 34 1 32 0 93 93 ESE 3 6 30.50 1033 3 4 0.00 0.00
7:52 pm 19:52 Cloudy with Mist and Fog 34 1.1 32 0 92 92 E 3 6 30.49 1033 2 3 0.00 0.00
8:40 pm 20:40 Cloudy with Mist and Fog 34 1 34 1 100 100 SE 3 6 30.53 1034 2 3 0.00 0.00
8:52 pm 20:52 Cloudy with Mist and Fog 34 1.1 33 0.6 97 97 ESE 3 6 30.50 1033 2 3 0.00 0.00
9:45 pm 21:45 Cloudy with Mist and Fog 34 1.1 33 0.6 97 97 ESE 3 6 30.50 1033 3 4 0.00 0.03
9:52 pm 21:52 Cloudy with Mist and Fog 34 1.1 33 0.6 97 97 SSE 3 6 30.49 1033 3 4 0.00 0.03
10:33 pm 22:33 Cloudy with Mist and Fog 34 1.1 33 0.6 97 97 ENE 5 7 30.50 1033 2 2 0.00 0.00
10:52 pm 22:52 Cloudy with Mist and Fog 34 1.1 32 0 92 92 N 5 7 30.48 1032 1 2 0.00 0.00
11:05 pm 23:05 Mostly Cloudy with Mist and Fog 34 1.1 32 0 92 92 N 3 6 30.50 1033 1 1 0.00 0.00
11:28 pm 23:28 Mostly Cloudy with Rain 34 1 34 1 100 100 Calm 30.50 1033 1 2 0.00 0.00
11:52 pm 23:52 Cloudy with Light Rain 34 1.1 33 0.6 97 97 ESE 3 6 30.47 1032 3 4 0.03 0.76

Powered by AerisWeather